Sidney-Richland, MT

7:58 PM MDT on May 25, 2017 (GMT -0600)
Sidney-Richland Municipal

Weather History for KSDY - May, 2014

Change the Weather History Date:

Sunday, May 25, 2014

  Actual Average Record
Temperature  
Mean Temperature 66 °F -  
Max Temperature 77 °F 74 °F 89 °F (1988)
Min Temperature 55 °F 45 °F 29 °F (1992)
Cooling Degree Days 1    
Growing Degree Days 16 (Base 50)    
Moisture  
Dew Point 53 °F    
Average Humidity 63    
Maximum Humidity 94    
Minimum Humidity 41    
Precipitation  
Precipitation 0.00 in - - ()
Sea Level Pressure  
Sea Level Pressure 29.92 in    
Wind  
Wind Speed 8 mph (North)    
Max Wind Speed 22 mph    
Max Gust Speed 29 mph    
Visibility 10 miles    
Events      
Averages and records for this station are not official NWS values.
T = Trace of Precipitation, MM = Missing Value Source: NWS Daily Summary

Daily Weather History Graph

Daily Weather History Graph

Search for Another Location

Airport or City:

Trip Planner

Search our weather history database for the weather conditions in past years. The results will help you decide how hot, cold, wet, or windy it might be!

Date:

Astronomy

May. 25, 2014 Rise Set
Actual Time 5:08 AM MDT 8:40 PM MDT
Civil Twilight 4:29 AM MDT 9:18 PM MDT
Nautical Twilight 3:38 AM MDT 10:10 PM MDT
Astronomical Twilight 2:30 AM MDT 11:19 PM MDT
Moon 3:29 AM MDT (5/25) 5:30 PM MDT (5/25)
Length of Visible Light 16h 48m
Length of Day
15h 31m
Waning Crescent, 10% of the Moon is Illuminated
May 25
Waning Crescent
May 28
New
Jun 5
First Quarter
Jun 12
Full
Jun 19
Last Quarter

Hourly Weather History & Observations

Time (MDT) Temp. Dew Point Humidity Pressure Visibility Wind Dir Wind Speed Gust Speed Precip Events Conditions
12:15 AM 64.4 °F 55.4 °F 73% 29.87 in 10.0 mi NNE 8.1 mph - N/A   Clear
12:35 AM 64.4 °F 55.4 °F 73% 29.87 in 10.0 mi NE 10.4 mph - N/A   Clear
12:55 AM 62.6 °F 55.4 °F 77% 29.87 in 10.0 mi NNE 5.8 mph - N/A   Clear
1:15 AM 60.8 °F 55.4 °F 82% 29.86 in 10.0 mi North 4.6 mph - N/A   Clear
1:35 AM 60.8 °F 55.4 °F 82% 29.87 in 10.0 mi Calm Calm - N/A   Clear
1:55 AM 60.8 °F 55.4 °F 82% 29.86 in 10.0 mi ENE 3.5 mph - N/A   Clear
2:15 AM 60.8 °F 53.6 °F 77% 29.86 in 10.0 mi NE 3.5 mph - N/A   Clear
2:35 AM 59.0 °F 53.6 °F 82% 29.86 in 10.0 mi Calm Calm - N/A   Clear
2:55 AM 57.2 °F 53.6 °F 88% 29.86 in 10.0 mi Calm Calm - N/A   Clear
3:15 AM 57.2 °F 53.6 °F 88% 29.86 in 10.0 mi West 3.5 mph - N/A   Clear
3:35 AM 57.2 °F 53.6 °F 88% 29.86 in 10.0 mi WNW 3.5 mph - N/A   Clear
3:55 AM 55.4 °F 53.6 °F 94% 29.87 in 10.0 mi NW 5.8 mph - N/A   Clear
4:15 AM 57.2 °F 53.6 °F 88% 29.88 in 10.0 mi NW 11.5 mph - N/A   Clear
4:35 AM 55.4 °F 53.6 °F 94% 29.87 in 10.0 mi NW 8.1 mph - N/A   Clear
4:55 AM 57.2 °F 53.6 °F 88% 29.88 in 10.0 mi WNW 9.2 mph - N/A   Clear
5:15 AM 57.2 °F 53.6 °F 88% 29.88 in 10.0 mi NW 9.2 mph - N/A   Clear
5:35 AM 57.2 °F 53.6 °F 88% 29.89 in 10.0 mi WNW 6.9 mph - N/A   Clear
5:55 AM 57.2 °F 53.6 °F 88% 29.89 in 10.0 mi NW 8.1 mph - N/A   Clear
6:15 AM 57.2 °F 53.6 °F 88% 29.90 in 10.0 mi WNW 6.9 mph - N/A   Clear
6:35 AM 59.0 °F 53.6 °F 82% 29.91 in 10.0 mi Calm Calm - N/A   Clear
6:55 AM 60.8 °F 55.4 °F 82% 29.92 in 10.0 mi Calm Calm - N/A   Clear
7:15 AM 62.6 °F 53.6 °F 72% 29.93 in 10.0 mi NW 11.5 mph - N/A   Clear
7:35 AM 62.6 °F 53.6 °F 72% 29.93 in 10.0 mi NW 9.2 mph 16.1 mph N/A   Clear
7:55 AM 64.4 °F 51.8 °F 64% 29.94 in 10.0 mi NNW 18.4 mph 21.9 mph N/A   Clear
8:15 AM 64.4 °F 51.8 °F 64% 29.94 in 10.0 mi NNW 17.3 mph 23.0 mph N/A   Clear
9:15 AM 66.2 °F 48.2 °F 52% 29.95 in 10.0 mi North 20.7 mph 25.3 mph N/A   Clear
9:35 AM 68.0 °F 50.0 °F 52% 29.95 in 10.0 mi North 20.7 mph 27.6 mph N/A   Clear
9:55 AM 68.0 °F 50.0 °F 52% 29.95 in 10.0 mi North 21.9 mph 27.6 mph N/A   Clear
10:15 AM 69.8 °F 50.0 °F 49% 29.95 in 10.0 mi North 21.9 mph 28.8 mph N/A   Scattered Clouds
10:35 AM 69.8 °F 50.0 °F 49% 29.95 in 10.0 mi North 19.6 mph 26.5 mph N/A   Partly Cloudy
10:55 AM 71.6 °F 51.8 °F 50% 29.95 in 10.0 mi North 20.7 mph 26.5 mph N/A   Clear
11:15 AM 71.6 °F 51.8 °F 50% 29.95 in 10.0 mi NNE 12.7 mph - N/A   Clear
11:35 AM 71.6 °F 51.8 °F 50% 29.95 in 10.0 mi NNE 12.7 mph 20.7 mph N/A   Clear
11:55 AM 71.6 °F 51.8 °F 50% 29.95 in 10.0 mi NE 13.8 mph - N/A   Clear
12:15 PM 73.4 °F 51.8 °F 47% 29.95 in 10.0 mi NNE 11.5 mph 19.6 mph N/A   Clear
12:35 PM 73.4 °F 51.8 °F 47% 29.95 in 10.0 mi NE 9.2 mph - N/A   Clear
12:55 PM 73.4 °F 51.8 °F 47% 29.95 in 10.0 mi NNE 11.5 mph 16.1 mph N/A   Clear
1:15 PM 75.2 °F 51.8 °F 44% 29.95 in 10.0 mi North 15.0 mph 18.4 mph N/A   Partly Cloudy
1:35 PM 73.4 °F 53.6 °F 50% 29.95 in 10.0 mi North 12.7 mph - N/A   Clear
1:55 PM 73.4 °F 51.8 °F 47% 29.95 in 10.0 mi North 10.4 mph - N/A   Clear
2:15 PM 75.2 °F 51.8 °F 44% 29.95 in 10.0 mi North 9.2 mph - N/A   Clear
2:35 PM 73.4 °F 51.8 °F 47% 29.95 in 10.0 mi NNW 5.8 mph - N/A   Clear
2:55 PM 73.4 °F 50.0 °F 44% 29.94 in 10.0 mi North 8.1 mph - N/A   Clear
3:35 PM 75.2 °F 51.8 °F 44% 29.93 in 10.0 mi NNE 8.1 mph - N/A   Partly Cloudy
3:55 PM 75.2 °F 51.8 °F 44% 29.93 in 10.0 mi Calm Calm - N/A   Partly Cloudy
4:15 PM 75.2 °F 53.6 °F 47% 29.92 in 10.0 mi NE 8.1 mph - N/A   Partly Cloudy
4:35 PM 75.2 °F 51.8 °F 44% 29.92 in 10.0 mi North 6.9 mph - N/A   Clear
4:55 PM 75.2 °F 51.8 °F 44% 29.92 in 10.0 mi NNE 6.9 mph - N/A   Partly Cloudy
5:15 PM 77.0 °F 51.8 °F 41% 29.92 in 10.0 mi North 6.9 mph - N/A   Scattered Clouds
5:35 PM 75.2 °F 51.8 °F 44% 29.92 in 10.0 mi NNW 4.6 mph - N/A   Partly Cloudy
5:55 PM 75.2 °F 51.8 °F 44% 29.92 in 10.0 mi NNW 5.8 mph - N/A   Mostly Cloudy
6:15 PM 75.2 °F 51.8 °F 44% 29.92 in 10.0 mi North 6.9 mph - N/A   Overcast
6:35 PM 75.2 °F 51.8 °F 44% 29.92 in 10.0 mi NNE 5.8 mph - N/A   Overcast
6:55 PM 73.4 °F 53.6 °F 50% 29.92 in 10.0 mi North 5.8 mph - N/A   Overcast
7:15 PM 73.4 °F 51.8 °F 47% 29.93 in 10.0 mi North 9.2 mph - N/A   Partly Cloudy
7:35 PM 73.4 °F 51.8 °F 47% 29.93 in 10.0 mi NNE 6.9 mph - N/A   Clear
7:55 PM 71.6 °F 51.8 °F 50% 29.93 in 10.0 mi NNE 6.9 mph - N/A   Clear
8:15 PM 69.8 °F 51.8 °F 53% 29.93 in 10.0 mi NNE 5.8 mph - N/A   Clear
8:35 PM 68.0 °F 50.0 °F 52% 29.93 in 10.0 mi NNE 5.8 mph - N/A   Clear
8:55 PM 66.2 °F 50.0 °F 56% 29.94 in 10.0 mi North 5.8 mph - N/A   Clear
9:15 PM 66.2 °F 51.8 °F 60% 29.95 in 10.0 mi North 6.9 mph - N/A   Clear
9:35 PM 64.4 °F 51.8 °F 64% 29.95 in 10.0 mi NNE 6.9 mph - N/A   Clear
9:55 PM 62.6 °F 53.6 °F 72% 29.96 in 10.0 mi NNE 6.9 mph - N/A   Clear
10:15 PM 64.4 °F 53.6 °F 68% 29.97 in 10.0 mi NNE 5.8 mph - N/A   Clear
10:35 PM 62.6 °F 53.6 °F 72% 29.97 in 10.0 mi NE 5.8 mph - N/A   Clear
10:55 PM 62.6 °F 53.6 °F 72% 29.97 in 10.0 mi Calm Calm - N/A   Clear
11:15 PM 60.8 °F 51.8 °F 72% 29.97 in 10.0 mi Calm Calm - N/A   Clear
11:35 PM 59.0 °F 51.8 °F 77% 29.97 in 10.0 mi Calm Calm - N/A   Clear
11:55 PM 60.8 °F 53.6 °F 77% 29.97 in 10.0 mi NNE 3.5 mph - N/A   Clear